Time,TemperatureF,DewpointF,PressureIn,WindDirection,WindDirectionDegrees,WindSpeedMPH,WindSpeedGustMPH,Humidity,HourlyPrecipIn,Conditions,Clouds,dailyrainin,SoftwareType,DateUTC
2015-05-06 00:02:00,43.5,14.9,29.53,ESE,115,0.0,0.0,31,0.00,,,0.00,meteobridge,2015-05-06 04:02:00,
2015-05-06 00:07:00,43.3,14.7,29.53,ESE,115,0.0,0.0,31,0.00,,,0.00,meteobridge,2015-05-06 04:07:00,
2015-05-06 00:12:00,43.0,14.4,29.53,ESE,115,0.0,0.0,31,0.00,,,0.00,meteobridge,2015-05-06 04:12:00,
2015-05-06 00:17:00,42.8,14.2,29.53,ESE,115,0.0,0.0,31,0.00,,,0.00,meteobridge,2015-05-06 04:17:00,
2015-05-06 00:22:00,42.6,14.9,29.53,ESE,115,0.0,0.0,32,0.00,,,0.00,meteobridge,2015-05-06 04:22:00,
2015-05-06 00:27:00,42.3,14.5,29.53,ESE,115,0.0,0.0,32,0.00,,,0.00,meteobridge,2015-05-06 04:27:00,
2015-05-06 00:32:00,42.1,14.4,29.53,ESE,115,0.0,0.0,32,0.00,,,0.00,meteobridge,2015-05-06 04:32:00,
2015-05-06 00:37:00,41.9,14.2,29.53,ESE,115,0.0,0.0,32,0.00,,,0.00,meteobridge,2015-05-06 04:37:00,
2015-05-06 00:42:00,41.7,14.0,29.50,ESE,115,0.0,0.0,32,0.00,,,0.00,meteobridge,2015-05-06 04:42:00,
2015-05-06 00:48:00,41.5,14.5,29.50,ESE,115,0.0,0.0,33,0.00,,,0.00,meteobridge,2015-05-06 04:48:00,
2015-05-06 00:53:00,41.2,14.2,29.50,ESE,115,0.0,0.0,33,0.00,,,0.00,meteobridge,2015-05-06 04:53:00,
2015-05-06 00:58:00,41.0,14.0,29.53,ESE,115,0.0,0.0,33,0.00,,,0.00,meteobridge,2015-05-06 04:58:00,
2015-05-06 01:03:00,40.8,14.0,29.53,ESE,115,0.0,0.0,33,0.00,,,0.00,meteobridge,2015-05-06 05:03:00,
2015-05-06 01:08:00,40.6,13.8,29.53,ESE,115,0.0,0.0,33,0.00,,,0.00,meteobridge,2015-05-06 05:08:00,
2015-05-06 01:13:00,40.5,13.6,29.53,ESE,115,0.0,0.0,33,0.00,,,0.00,meteobridge,2015-05-06 05:13:00,
2015-05-06 01:18:00,40.3,13.5,29.53,ESE,115,0.0,0.0,33,0.00,,,0.00,meteobridge,2015-05-06 05:18:00,
2015-05-06 01:23:00,40.3,13.5,29.53,ESE,115,0.0,0.0,33,0.00,,,0.00,meteobridge,2015-05-06 05:23:00,
2015-05-06 01:29:00,40.1,14.0,29.53,ESE,115,0.0,0.0,34,0.00,,,0.00,meteobridge,2015-05-06 05:29:00,
2015-05-06 01:34:00,39.9,13.8,29.53,ESE,115,0.0,0.0,34,0.00,,,0.00,meteobridge,2015-05-06 05:34:00,
2015-05-06 01:39:00,39.7,13.6,29.53,ESE,115,0.0,0.0,34,0.00,,,0.00,meteobridge,2015-05-06 05:39:00,
2015-05-06 01:44:00,39.7,14.9,29.53,ESE,115,0.0,0.0,36,0.00,,,0.00,meteobridge,2015-05-06 05:44:00,
2015-05-06 01:49:00,39.6,14.7,29.53,ESE,115,0.0,0.0,36,0.00,,,0.00,meteobridge,2015-05-06 05:49:00,
2015-05-06 01:54:00,39.4,13.3,29.53,ESE,115,0.0,0.0,34,0.00,,,0.00,meteobridge,2015-05-06 05:54:00,
2015-05-06 01:59:00,39.4,13.3,29.53,ESE,115,0.0,0.0,34,0.00,,,0.00,meteobridge,2015-05-06 05:59:00,
2015-05-06 02:04:00,39.2,14.5,29.53,ESE,115,0.0,0.0,36,0.00,,,0.00,meteobridge,2015-05-06 06:04:00,
2015-05-06 02:09:00,39.0,14.4,29.53,ESE,115,0.0,0.0,36,0.00,,,0.00,meteobridge,2015-05-06 06:09:00,
2015-05-06 02:15:00,38.8,14.7,29.50,ESE,115,0.0,0.0,37,0.00,,,0.00,meteobridge,2015-05-06 06:15:00,
2015-05-06 02:20:00,38.8,14.7,29.50,ESE,115,0.0,0.0,37,0.00,,,0.00,meteobridge,2015-05-06 06:20:00,
2015-05-06 02:25:00,38.7,14.5,29.50,ESE,115,0.0,0.0,37,0.00,,,0.00,meteobridge,2015-05-06 06:25:00,
2015-05-06 02:30:00,38.7,15.3,29.50,ESE,115,0.0,0.0,38,0.00,,,0.00,meteobridge,2015-05-06 06:30:00,
2015-05-06 02:35:00,38.5,15.1,29.50,ESE,115,0.0,0.0,38,0.00,,,0.00,meteobridge,2015-05-06 06:35:00,
2015-05-06 02:40:00,38.5,15.1,29.50,ESE,115,0.0,0.0,38,0.00,,,0.00,meteobridge,2015-05-06 06:40:00,
2015-05-06 02:45:00,38.3,14.9,29.50,ESE,115,0.0,0.0,38,0.00,,,0.00,meteobridge,2015-05-06 06:45:00,
2015-05-06 02:50:00,38.1,14.7,29.50,ESE,115,0.0,0.0,38,0.00,,,0.00,meteobridge,2015-05-06 06:50:00,
2015-05-06 02:55:00,38.1,14.7,29.50,ESE,115,0.0,0.0,38,0.00,,,0.00,meteobridge,2015-05-06 06:55:00,
2015-05-06 03:00:00,37.9,14.5,29.50,ESE,115,0.0,0.0,38,0.00,,,0.00,meteobridge,2015-05-06 07:00:00,
2015-05-06 03:05:00,37.9,15.3,29.50,ESE,115,0.0,0.0,39,0.00,,,0.00,meteobridge,2015-05-06 07:05:00,
2015-05-06 03:11:00,37.9,15.3,29.50,ESE,115,0.0,0.0,39,0.00,,,0.00,meteobridge,2015-05-06 07:11:00,
2015-05-06 03:16:00,37.9,15.8,29.50,ESE,115,0.0,0.0,40,0.00,,,0.00,meteobridge,2015-05-06 07:16:00,
2015-05-06 03:21:00,37.8,15.6,29.50,ESE,115,0.0,0.0,40,0.00,,,0.00,meteobridge,2015-05-06 07:21:00,
2015-05-06 03:26:00,37.8,15.6,29.50,ESE,115,0.0,0.0,40,0.00,,,0.00,meteobridge,2015-05-06 07:26:00,
2015-05-06 03:31:00,37.8,15.6,29.50,ESE,115,0.0,0.0,40,0.00,,,0.00,meteobridge,2015-05-06 07:31:00,
2015-05-06 03:36:00,37.8,16.2,29.50,ESE,115,0.0,0.0,41,0.00,,,0.00,meteobridge,2015-05-06 07:36:00,
2015-05-06 03:41:00,37.8,15.6,29.50,ESE,115,0.0,0.0,40,0.00,,,0.00,meteobridge,2015-05-06 07:41:00,
2015-05-06 03:46:00,37.8,15.6,29.50,ESE,115,0.0,0.0,40,0.00,,,0.00,meteobridge,2015-05-06 07:46:00,
2015-05-06 03:52:00,37.8,15.6,29.50,ESE,115,0.0,0.0,40,0.00,,,0.00,meteobridge,2015-05-06 07:52:00,
2015-05-06 03:57:00,37.8,16.2,29.50,ESE,115,0.0,0.0,41,0.00,,,0.00,meteobridge,2015-05-06 07:57:00,
2015-05-06 04:02:00,37.8,16.2,29.50,ESE,115,0.0,0.0,41,0.00,,,0.00,meteobridge,2015-05-06 08:02:00,
2015-05-06 04:07:00,37.8,16.2,29.50,ESE,115,0.0,0.0,41,0.00,,,0.00,meteobridge,2015-05-06 08:07:00,
2015-05-06 04:12:00,37.6,16.0,29.47,ESE,115,0.0,0.0,41,0.00,,,0.00,meteobridge,2015-05-06 08:12:00,
2015-05-06 04:17:00,37.6,16.5,29.47,ESE,115,0.0,0.0,42,0.00,,,0.00,meteobridge,2015-05-06 08:17:00,
2015-05-06 04:22:00,37.8,16.7,29.47,ESE,115,0.0,0.0,42,0.00,,,0.00,meteobridge,2015-05-06 08:22:00,
2015-05-06 04:28:00,37.6,16.5,29.47,ESE,115,0.0,0.0,42,0.00,,,0.00,meteobridge,2015-05-06 08:28:00,
2015-05-06 04:33:00,37.6,16.5,29.47,ESE,115,0.0,0.0,42,0.00,,,0.00,meteobridge,2015-05-06 08:33:00,
2015-05-06 04:38:00,37.8,16.7,29.47,ESE,115,0.0,0.0,42,0.00,,,0.00,meteobridge,2015-05-06 08:38:00,
2015-05-06 04:43:00,37.8,17.2,29.47,ESE,115,0.0,0.0,43,0.00,,,0.00,meteobridge,2015-05-06 08:43:00,
2015-05-06 04:48:00,37.8,17.2,29.47,ESE,115,0.0,0.0,43,0.00,,,0.00,meteobridge,2015-05-06 08:48:00,
2015-05-06 04:53:00,37.6,16.5,29.47,ESE,115,0.0,0.0,42,0.00,,,0.00,meteobridge,2015-05-06 08:53:00,
2015-05-06 04:58:00,37.6,17.1,29.47,ESE,115,0.0,0.0,43,0.00,,,0.00,meteobridge,2015-05-06 08:58:00,
2015-05-06 05:04:00,37.6,17.1,29.47,ESE,115,0.0,0.0,43,0.00,,,0.00,meteobridge,2015-05-06 09:04:00,
2015-05-06 05:09:00,37.6,17.1,29.47,ESE,115,0.0,0.0,43,0.00,,,0.00,meteobridge,2015-05-06 09:09:00,
2015-05-06 05:14:00,37.6,17.1,29.47,ESE,115,0.0,0.0,43,0.00,,,0.00,meteobridge,2015-05-06 09:14:00,
2015-05-06 05:19:00,37.6,17.1,29.47,ESE,115,0.0,0.0,43,0.00,,,0.00,meteobridge,2015-05-06 09:19:00,
2015-05-06 05:24:00,37.6,17.1,29.47,ESE,115,0.0,0.0,43,0.00,,,0.00,meteobridge,2015-05-06 09:24:00,
2015-05-06 05:29:00,37.6,17.1,29.47,ESE,115,0.0,0.0,43,0.00,,,0.00,meteobridge,2015-05-06 09:29:00,
2015-05-06 05:34:00,37.6,17.1,29.47,ESE,115,0.0,0.0,43,0.00,,,0.00,meteobridge,2015-05-06 09:34:00,
2015-05-06 05:39:00,37.6,17.1,29.47,ESE,115,0.0,0.0,43,0.00,,,0.00,meteobridge,2015-05-06 09:39:00,
2015-05-06 05:44:00,37.6,16.5,29.47,ESE,115,0.0,0.0,42,0.00,,,0.00,meteobridge,2015-05-06 09:44:00,
2015-05-06 05:49:00,37.6,16.5,29.47,ESE,115,0.0,0.0,42,0.00,,,0.00,meteobridge,2015-05-06 09:49:00,
2015-05-06 05:55:00,37.6,16.5,29.47,ESE,115,0.0,0.0,42,0.00,,,0.00,meteobridge,2015-05-06 09:55:00,
2015-05-06 06:00:00,37.6,17.1,29.47,ESE,115,0.0,0.0,43,0.00,,,0.00,meteobridge,2015-05-06 10:00:00,
2015-05-06 06:05:00,37.6,17.1,29.47,ESE,115,0.0,0.0,43,0.00,,,0.00,meteobridge,2015-05-06 10:05:00,
2015-05-06 06:10:00,37.8,17.2,29.47,ESE,115,0.0,0.0,43,0.00,,,0.00,meteobridge,2015-05-06 10:10:00,
2015-05-06 06:15:00,37.9,18.0,29.47,ESE,115,0.0,0.0,44,0.00,,,0.00,meteobridge,2015-05-06 10:15:00,
2015-05-06 06:20:00,38.1,18.1,29.47,ESE,115,0.0,0.0,44,0.00,,,0.00,meteobridge,2015-05-06 10:20:00,
2015-05-06 06:25:00,38.3,18.3,29.47,ESE,115,0.0,0.0,44,0.00,,,0.00,meteobridge,2015-05-06 10:25:00,
2015-05-06 06:31:00,38.5,18.5,29.47,ESE,115,0.0,0.0,44,0.00,,,0.00,meteobridge,2015-05-06 10:31:00,
2015-05-06 06:36:00,38.5,18.5,29.47,ESE,115,0.0,0.0,44,0.00,,,0.00,meteobridge,2015-05-06 10:36:00,
2015-05-06 06:41:00,38.7,18.7,29.47,ESE,115,0.0,0.0,44,0.00,,,0.00,meteobridge,2015-05-06 10:41:00,
2015-05-06 06:46:00,38.8,18.9,29.47,ESE,115,0.0,0.0,44,0.00,,,0.00,meteobridge,2015-05-06 10:46:00,
2015-05-06 06:51:00,39.0,19.9,29.47,ESE,115,0.0,0.0,46,0.00,,,0.00,meteobridge,2015-05-06 10:51:00,
2015-05-06 06:56:00,39.2,19.0,29.47,ESE,115,0.0,0.0,44,0.00,,,0.00,meteobridge,2015-05-06 10:56:00,
2015-05-06 07:01:00,39.2,19.0,29.47,ESE,115,0.0,0.0,44,0.00,,,0.00,meteobridge,2015-05-06 11:01:00,
2015-05-06 07:06:00,39.2,19.0,29.47,ESE,115,0.0,0.0,44,0.00,,,0.00,meteobridge,2015-05-06 11:06:00,
2015-05-06 07:12:00,39.2,19.0,29.47,ESE,115,0.0,0.0,44,0.00,,,0.00,meteobridge,2015-05-06 11:12:00,
2015-05-06 07:17:00,39.2,19.0,29.47,ESE,115,0.0,0.0,44,0.00,,,0.00,meteobridge,2015-05-06 11:17:00,
2015-05-06 07:22:00,39.2,19.0,29.47,ESE,115,0.0,0.0,44,0.00,,,0.00,meteobridge,2015-05-06 11:22:00,
2015-05-06 07:27:00,39.2,19.0,29.47,ESE,115,0.0,0.0,44,0.00,,,0.00,meteobridge,2015-05-06 11:27:00,
2015-05-06 07:32:00,39.2,19.0,29.47,ESE,115,0.0,0.0,44,0.00,,,0.00,meteobridge,2015-05-06 11:32:00,
2015-05-06 07:37:00,39.2,19.0,29.47,ESE,115,0.0,0.0,44,0.00,,,0.00,meteobridge,2015-05-06 11:37:00,
2015-05-06 07:42:00,39.0,18.9,29.47,ESE,115,0.0,0.0,44,0.00,,,0.00,meteobridge,2015-05-06 11:42:00,
2015-05-06 07:48:00,39.0,18.9,29.47,ESE,115,0.0,0.0,44,0.00,,,0.00,meteobridge,2015-05-06 11:48:00,
2015-05-06 07:53:00,38.8,18.3,29.47,ESE,115,0.0,0.0,43,0.00,,,0.00,meteobridge,2015-05-06 11:53:00,
2015-05-06 07:58:00,38.8,18.3,29.50,ESE,115,0.0,0.0,43,0.00,,,0.00,meteobridge,2015-05-06 11:58:00,
2015-05-06 08:03:00,38.8,18.3,29.50,ESE,115,0.0,0.0,43,0.00,,,0.00,meteobridge,2015-05-06 12:03:00,
2015-05-06 08:08:00,39.0,18.9,29.50,ESE,115,0.0,0.0,44,0.00,,,0.00,meteobridge,2015-05-06 12:08:00,
2015-05-06 08:13:00,39.2,19.0,29.50,ESE,115,0.0,0.0,44,0.00,,,0.00,meteobridge,2015-05-06 12:13:00,
2015-05-06 08:18:00,39.6,19.4,29.50,ESE,115,0.0,0.0,44,0.00,,,0.00,meteobridge,2015-05-06 12:18:00,
2015-05-06 08:23:00,40.3,21.7,29.50,ESE,115,0.0,0.0,47,0.00,,,0.00,meteobridge,2015-05-06 12:23:00,
2015-05-06 08:29:00,41.2,23.0,29.50,ESE,115,0.0,0.0,48,0.00,,,0.00,meteobridge,2015-05-06 12:29:00,
2015-05-06 08:34:00,42.3,24.4,29.50,ESE,115,0.0,0.0,49,0.00,,,0.00,meteobridge,2015-05-06 12:34:00,
2015-05-06 08:39:00,43.3,25.9,29.50,ESE,115,0.0,0.0,50,0.00,,,0.00,meteobridge,2015-05-06 12:39:00,
2015-05-06 08:44:00,45.0,28.4,29.50,SE,142,0.0,0.0,52,0.00,,,0.00,meteobridge,2015-05-06 12:44:00,
2015-05-06 08:49:00,46.6,30.7,29.50,SSE,151,0.0,0.0,54,0.00,,,0.00,meteobridge,2015-05-06 12:49:00,
2015-05-06 08:54:00,48.0,32.2,29.50,SW,234,0.0,0.0,54,0.00,,,0.00,meteobridge,2015-05-06 12:54:00,
2015-05-06 08:59:00,49.6,32.2,29.50,SE,128,0.0,0.0,51,0.00,,,0.00,meteobridge,2015-05-06 12:59:00,
2015-05-06 09:05:00,50.9,31.8,29.50,SE,130,0.0,0.0,48,0.00,,,0.00,meteobridge,2015-05-06 13:05:00,
2015-05-06 09:10:00,51.6,31.5,29.50,SE,142,0.0,0.0,46,0.00,,,0.00,meteobridge,2015-05-06 13:10:00,
2015-05-06 09:15:00,52.5,30.7,29.50,North,9,0.0,0.0,43,0.00,,,0.00,meteobridge,2015-05-06 13:15:00,
2015-05-06 09:20:00,53.1,30.0,29.50,SE,126,0.0,3.6,41,0.00,,,0.00,meteobridge,2015-05-06 13:20:00,
2015-05-06 09:25:00,53.8,29.5,29.50,ESE,120,0.0,0.0,39,0.00,,,0.00,meteobridge,2015-05-06 13:25:00,
2015-05-06 09:30:00,54.5,29.5,29.50,East,79,0.0,3.1,38,0.00,,,0.00,meteobridge,2015-05-06 13:30:00,
2015-05-06 09:35:00,55.0,28.6,29.50,SE,129,0.0,0.0,36,0.00,,,0.00,meteobridge,2015-05-06 13:35:00,
2015-05-06 09:40:00,55.8,26.4,29.50,SE,145,0.0,0.0,32,0.00,,,0.00,meteobridge,2015-05-06 13:40:00,
2015-05-06 09:46:00,56.5,27.0,29.50,ESE,114,0.0,0.0,32,0.00,,,0.00,meteobridge,2015-05-06 13:46:00,
2015-05-06 09:51:00,57.0,26.6,29.50,SE,138,3.1,3.1,31,0.00,,,0.00,meteobridge,2015-05-06 13:51:00,
2015-05-06 09:56:00,57.6,26.4,29.50,SE,130,0.0,0.0,30,0.00,,,0.00,meteobridge,2015-05-06 13:56:00,
2015-05-06 10:01:00,58.1,26.1,29.50,SE,141,0.0,0.0,29,0.00,,,0.00,meteobridge,2015-05-06 14:01:00,
2015-05-06 10:06:00,58.5,26.2,29.50,SE,125,0.0,3.6,29,0.00,,,0.00,meteobridge,2015-05-06 14:06:00,
2015-05-06 10:11:00,59.2,27.0,29.50,East,85,0.0,0.0,29,0.00,,,0.00,meteobridge,2015-05-06 14:11:00,
2015-05-06 10:16:00,59.7,26.6,29.50,SSE,151,0.0,4.0,28,0.00,,,0.00,meteobridge,2015-05-06 14:16:00,
2015-05-06 10:22:00,60.4,28.0,29.50,East,79,0.0,3.1,29,0.00,,,0.00,meteobridge,2015-05-06 14:22:00,
2015-05-06 10:27:00,61.0,26.8,29.50,SE,142,0.0,0.0,27,0.00,,,0.00,meteobridge,2015-05-06 14:27:00,
2015-05-06 10:32:00,61.5,27.1,29.50,SE,138,0.0,0.0,27,0.00,,,0.00,meteobridge,2015-05-06 14:32:00,
2015-05-06 10:37:00,61.9,26.6,29.50,SE,133,0.0,0.0,26,0.00,,,0.00,meteobridge,2015-05-06 14:37:00,
2015-05-06 10:42:00,62.1,27.7,29.50,SSE,165,0.0,0.0,27,0.00,,,0.00,meteobridge,2015-05-06 14:42:00,
2015-05-06 10:47:00,62.4,27.1,29.50,SSE,165,5.4,5.4,26,0.00,,,0.00,meteobridge,2015-05-06 14:47:00,
2015-05-06 10:52:00,63.0,21.2,29.50,NE,37,0.0,5.4,20,0.00,,,0.00,meteobridge,2015-05-06 14:52:00,
2015-05-06 10:57:00,63.5,22.8,29.50,SSE,154,0.0,4.9,21,0.00,,,0.00,meteobridge,2015-05-06 14:57:00,
2015-05-06 11:03:00,63.7,21.9,29.50,East,82,0.0,3.1,20,0.00,,,0.00,meteobridge,2015-05-06 15:03:00,
2015-05-06 11:08:00,63.9,20.8,29.50,NE,54,0.0,0.0,19,0.00,,,0.00,meteobridge,2015-05-06 15:08:00,
2015-05-06 11:13:00,63.9,20.8,29.50,SE,144,0.0,0.0,19,0.00,,,0.00,meteobridge,2015-05-06 15:13:00,
2015-05-06 11:18:00,63.9,20.8,29.50,ESE,119,0.0,5.4,19,0.00,,,0.00,meteobridge,2015-05-06 15:18:00,
2015-05-06 11:23:00,64.0,19.6,29.50,SSE,151,0.0,5.8,18,0.00,,,0.00,meteobridge,2015-05-06 15:23:00,
2015-05-06 11:28:00,64.2,18.5,29.50,SE,136,5.4,5.8,17,0.00,,,0.00,meteobridge,2015-05-06 15:28:00,
2015-05-06 11:33:00,64.2,18.5,29.50,SE,130,2.2,6.3,17,0.00,,,0.00,meteobridge,2015-05-06 15:33:00,
2015-05-06 11:39:00,64.4,18.7,29.50,East,90,0.0,4.9,17,0.00,,,0.00,meteobridge,2015-05-06 15:39:00,
2015-05-06 11:44:00,64.6,18.9,29.50,ENE,78,0.0,0.0,17,0.00,,,0.00,meteobridge,2015-05-06 15:44:00,
2015-05-06 11:49:00,64.9,17.6,29.50,South,189,0.0,4.0,16,0.00,,,0.00,meteobridge,2015-05-06 15:49:00,
2015-05-06 11:54:00,65.3,18.0,29.50,East,101,3.1,5.4,16,0.00,,,0.00,meteobridge,2015-05-06 15:54:00,
2015-05-06 11:59:00,65.7,18.3,29.50,SSE,152,6.3,6.3,16,0.00,,,0.00,meteobridge,2015-05-06 15:59:00,
2015-05-06 12:04:00,65.7,15.1,29.50,SSE,166,5.8,5.8,14,0.00,,,0.00,meteobridge,2015-05-06 16:04:00,
2015-05-06 12:09:00,65.8,15.3,29.50,SE,140,0.0,4.9,14,0.00,,,0.00,meteobridge,2015-05-06 16:09:00,
2015-05-06 12:14:00,66.0,15.4,29.50,SSE,155,0.0,0.0,14,0.00,,,0.00,meteobridge,2015-05-06 16:14:00,
2015-05-06 12:20:00,66.4,15.8,29.50,NE,55,0.0,5.8,14,0.00,,,0.00,meteobridge,2015-05-06 16:20:00,
2015-05-06 12:25:00,66.6,14.2,29.50,ENE,72,0.0,6.3,13,0.00,,,0.00,meteobridge,2015-05-06 16:25:00,
2015-05-06 12:30:00,66.7,16.0,29.50,SE,127,2.7,7.6,14,0.00,,,0.00,meteobridge,2015-05-06 16:30:00,
2015-05-06 12:35:00,66.9,14.5,29.50,South,177,0.0,0.0,13,0.00,,,0.00,meteobridge,2015-05-06 16:35:00,
2015-05-06 12:40:00,66.7,14.4,29.50,SE,131,5.4,8.7,13,0.00,,,0.00,meteobridge,2015-05-06 16:40:00,
2015-05-06 12:45:00,66.7,14.4,29.50,ENE,73,3.6,7.2,13,0.00,,,0.00,meteobridge,2015-05-06 16:45:00,
2015-05-06 12:50:00,66.7,14.4,29.50,South,182,5.8,5.8,13,0.00,,,0.00,meteobridge,2015-05-06 16:50:00,
2015-05-06 12:56:00,66.6,10.4,29.50,East,101,0.0,6.7,11,0.00,,,0.00,meteobridge,2015-05-06 16:56:00,
2015-05-06 13:01:00,66.6,15.8,29.50,SW,220,0.0,0.0,14,0.00,,,0.00,meteobridge,2015-05-06 17:01:00,
2015-05-06 13:06:00,66.6,14.2,29.50,ENE,62,4.0,5.4,13,0.00,,,0.00,meteobridge,2015-05-06 17:06:00,
2015-05-06 13:11:00,66.4,14.0,29.50,SSE,153,0.0,4.0,13,0.00,,,0.00,meteobridge,2015-05-06 17:11:00,
2015-05-06 13:16:00,66.4,15.8,29.50,SSE,149,4.0,4.0,14,0.00,,,0.00,meteobridge,2015-05-06 17:16:00,
2015-05-06 13:21:00,66.4,14.0,29.50,SE,135,4.9,4.9,13,0.00,,,0.00,meteobridge,2015-05-06 17:21:00,
2015-05-06 13:26:00,66.4,15.8,29.50,ENE,72,0.0,2.2,14,0.00,,,0.00,meteobridge,2015-05-06 17:26:00,
2015-05-06 13:31:00,66.4,14.0,29.50,SE,133,4.0,7.6,13,0.00,,,0.00,meteobridge,2015-05-06 17:31:00,
2015-05-06 13:37:00,66.2,15.6,29.50,ESE,118,0.0,0.0,14,0.00,,,0.00,meteobridge,2015-05-06 17:37:00,
2015-05-06 13:42:00,66.2,15.6,29.50,East,101,0.0,2.7,14,0.00,,,0.00,meteobridge,2015-05-06 17:42:00,
2015-05-06 13:47:00,66.2,15.6,29.50,SE,139,5.8,5.8,14,0.00,,,0.00,meteobridge,2015-05-06 17:47:00,
2015-05-06 13:52:00,66.2,15.6,29.50,SE,145,3.1,3.6,14,0.00,,,0.00,meteobridge,2015-05-06 17:52:00,
2015-05-06 13:57:00,66.2,13.8,29.50,SE,143,4.0,6.3,13,0.00,,,0.00,meteobridge,2015-05-06 17:57:00,
2015-05-06 14:02:00,66.0,15.4,29.50,SSE,166,0.0,3.6,14,0.00,,,0.00,meteobridge,2015-05-06 18:02:00,
2015-05-06 14:07:00,66.0,15.4,29.50,NNW,332,0.0,5.4,14,0.00,,,0.00,meteobridge,2015-05-06 18:07:00,